Regional Weather Roundup
Issued by NWS Charleston, SC

Current Version | Previous Version | Graphics & Text | Print | Product List | Glossary On
Versions: 1 2 3 4 5 6 7 8 9 10 11 12 13 14 15 16 17 18 19 20 21 22 23 24 25 26 27 28 29 30 31 32 33 34 35 36 37 38 39 40 41 42 43 44 45 46 47 48 49 50
000
ASUS42 KCHS 250325
RWRCHS

REGIONAL WEATHER ROUNDUP
NATIONAL WEATHER SERVICE CHARLESTON SC
1100 PM EDT THU JUL 24 2014

NOTE: "FAIR" INDICATES FEW OR NO CLOUDS BELOW 12,000 FEET WITH NO
SIGNIFICANT WEATHER AND/OR OBSTRUCTIONS TO VISIBILITY.

NOT ALL STATIONS ARE QUALITY CONTROLLED BY THE NATIONAL
WEATHER SERVICE. USE DATA WITH CAUTION...ESPECIALLY
DEWPOINT OBSERVATIONS.

SCZ027-030-031-034>040-042>050-250400-
...SOUTH CAROLINA...

CITY           SKY/WX    TMP DP  RH WIND       PRES   REMARKS
N CHARLESTON   PTCLDY    84  78  82 SW8       29.94R HX  95
WATERFRONT PRK   N/A     84 N/A N/A SW9G15      N/A
FORT JOHNSON   NOT AVBL
MOUNT PLEASANT FAIR      84  79  84 SW8       29.94R HX  96
JOHNS ISLAND   MOCLDY    84  75  74 SW9       29.95R HX  92
PINOPOLIS        N/A     86  73  66 SW5       29.85R HX  93
MONCKS CORNER    N/A     81  79  94 CALM      29.94R
SUMMERVILLE    NOT AVBL
BEAUFORT MCAS  PTCLDY    84  77  79 W5        29.95R HX  94
BEAUFORT ARPT  FAIR      82  79  89 SW5       29.94S HX  93
HILTON HEAD IS CLEAR     84  81  89 S8        29.97R HX  98
GEORGETOWN     NOT AVBL
WALTERBORO     CLEAR     81  70  69 SW3       29.95S
ORANGEBURG     CLEAR     80  72  76 NW5       29.94R
BARNWELL       FAIR      81  72  74 CALM      29.95S
AIKEN          FAIR      77  77 100 S6        29.98S
MANNING        MOCLDY    82  75  78 CALM      29.93R
KINGSTREE      NOT AVBL
COLUMBIA       PTCLDY    81  71  71 SW7       29.92R
SUMTER         MOCLDY    76  75  95 NE2       29.91S
FLORENCE       MOCLDY    75  72  90 SW9       29.91F
MYRTLE BEACH   MOCLDY    77  72  83 NW12G22   29.95R THUNDER
N MYRTLE BEACH MOCLDY    78  74  87 NW7       29.93R

$$

GAZ063-065-086>088-099>101-113>116-118-119-134-136>141-150-250400-
...GEORGIA...

CITY           SKY/WX    TMP DP  RH WIND       PRES   REMARKS
SAVANNAH ARPT  NOT AVBL
HUNTER AAF     PTCLDY    84  76  78 SW9       29.94S HX  92
FORT STEWART   MOCLDY    84  71  66 SW8       29.95S
STATESBORO     NOT AVBL
SYLVANIA       CLEAR     78  76  94 CALM      29.96S
CLAXTON        FAIR      81  75  83 W3        29.96F
THOMSON        MOCLDY    77  77 100 CALM      29.99S
AUGUSTA-BUSH   CLEAR     76  72  87 SW5       29.94R
AUGUSTA-DANIEL CLEAR     81  71  71 CALM      29.96R
SWAINSBORO     FAIR      82  73  74 W3        29.98R
VIDALIA          N/A     81  72  74 SW5       29.98S
ALMA           CLEAR     78  73  84 SW7       29.99S
WAYCROSS       CLEAR     80  78  94 SW5       30.00R
JESUP          NOT AVBL
BRUNSWICK      PTCLDY    81  72  74 CALM      30.00R
SAINT SIMONS   PTCLDY    83  72  69 W5        29.98R

$$

SCZ027-028-034-036>038-045-046-048>050-GAZ119-141-250400-
...LAKE AND SUPPLEMENTAL COASTAL OBSERVATIONS...

STATION/POSITION TIME  TEMP    WIND        PRES    WAVE   SWELL
                       AIR SEA DIR/SP/G            HT/PER HT/PER/DIR
                 (UTC) (F)     (DEG/KT/KT) (MB)    (FT/S) (FT/S/D)
UPR LAKE MARION  NOT AVBL
WINYAH BAY       0300   83     220/  9     1013.0S
LAKE MURRAY      0300   82     250/  5/  7 1012.5S
ACE BASIN NERRS  0300   83     200/  1     1014.0S
FORT PULASKI     0300   84     200/ 11/ 15 1014.6R
SAPELO ISLAND    0300   83     250/  7     1016.0S

$$

ANZ835-935-AMZ111-154-330-350-352-354-374-450-454-472-250400-
...C-MAN AND BUOY OBSERVATIONS...

STATION/POSITION TIME  TEMP    WIND        PRES    WAVE   SWELL
                       AIR SEA DIR/SP/G            HT/PER HT/PER/DIR
                 (UTC) (F)     (DEG/KT/KT) (MB)    (FT/S) (FT/S/D)
FOLLY BEACH CMAN 0300   84     220/ 15/ 19 1014.5R
BUOY 41004       0300   83 83  210/ 17/ 21 1013.1R   4/ 5   2/ 8
BUOY 41008       0200   84 85  190/ 17/ 21 1014.4R   3/ 4   2/110/ 8
5E ST. MARYS GA  0300      84                N/A     3/ 4
FRYING PAN BUOY  NOT AVBL
BUOY 41025       0300          VRB 16/ 17  1011.7S   4/ 5   2/150/ 8
CAPE LOOKOUT NC  0300   78     190/ 13/ 17 1011.8F
BUOY 41002       0146   82 82  230/ 19/ 23 1016.5    5/ 6   2/220/ 8
BUOY 41010       0300   83 84  200/ 14/ 16 1017.7R   3/ 7   2/130/ 7
BUOY 41012       NOT AVBL
ST AUGUSTINE FL  0300   81     200/  6/  7 1017.2R
CAPERS NEARSHORE 0200   84     230/ 17/ 19   N/A
FRIPP NEARSHORE  NOT AVBL


$$



USA.gov is the U.S. government's official web portal to all federal, state and local government web resources and services.